Flag for Germany Weather past 2 weeks in Melsungen, Hesse, Germany

Now
51 °F

Light rain. Overcast.


Feels Like: 51 °F
Forecast: 43 / 54 °F
Wind: 1 mph from Northwest

Location: Fritzlar

Current Time: Apr 27, 2015 at 1:32:58 AM

Latest Report: Apr 27, 2015 at 1:00 AM


Visibility: 3 mi

Pressure: 29.65 "Hg

Humidity: 97%

Dew point: 51 °F

Location of MelsungenLocation

Historic Weather in Melsungen — Graph

°F

Melsungen temperature yesterday

Maximum temperature yesterday: 62 °F (at 1:00 PM)
Minimum temperature yesterday: 47 °F (at 5:00 AM)
Average temperature yesterday: 54 °F

Past Weeks' High & Low Weather Summary

 TemperatureHumidityPressure
High75 °F (Apr 15, 5:00 PM)97% (Apr 26, 10:00 PM)30.47 "Hg (Apr 26, 10:00 PM)
Low29 °F (Apr 19, 7:00 AM)23% (Apr 21, 7:00 PM)29.67 "Hg (Apr 27, 12:00 AM)
Average50 °F64%30.15 "Hg
* Reported Midnight between Apr 11 and Apr 12 — Midnight between Apr 26 and Apr 27, Melsungen, Weather by CustomWeather, © 2015

Note: Actual official high and low records may vary slightly from our data, if they occured in-between our weather recording intervals... More about our weather records

Advertising

Melsungen weather history for previous 24 hours

 ConditionsComfort  
Time TempWeatherWind HumidityBarometerVisibility
12:00 AM
Mon, Apr 27
51 °FLow clouds.2 mph97%29.67 "Hg6 mi
11:00 PM
Sun, Apr 26
51 °FFog.2 mph97%29.68 "Hg7 mi
10:00 PM53 °FPassing clouds.2 mph97%29.70 "Hg12 mi
9:00 PM54 °FOvercast.1 mph93%29.69 "Hg12 mi
8:00 PM54 °FOvercast.1 mph91%29.68 "Hg16 mi
7:00 PM54 °FThunderstorms. Overcast.1 mph89%29.69 "Hg12 mi
6:00 PM54 °FThundershowers. Overcast.9 mph88%29.70 "Hg1 mi
5:00 PM61 °FOvercast.2 mph75%29.68 "Hg12 mi
4:00 PM59 °FOvercast.2 mph80%29.71 "Hg12 mi
3:00 PM55 °FRain showers. Overcast.7 mph88%29.74 "Hg5 mi
2:00 PM58 °FOvercast.3 mph80%29.73 "Hg12 mi
1:00 PM62 °FOvercast.6 mph65%29.74 "Hg16 mi
12:00 PM60 °FOvercast.6 mph68%29.75 "Hg16 mi
11:00 AM59 °FOvercast.6 mph73%29.76 "Hg16 mi
10:00 AM57 °FOvercast.6 mph80%29.77 "Hg11 mi
9:00 AM55 °FOvercast.3 mph87%29.78 "Hg9 mi
8:00 AM53 °FFog.3 mph93%29.78 "Hg3 mi
7:00 AM51 °FLow clouds.5 mph94%29.78 "Hg2 mi
6:00 AM50 °FFog.2 mph95%29.79 "Hg3 mi
5:00 AM47 °FPassing clouds.2 mph96%29.80 "Hg5 mi
4:00 AM49 °FPassing clouds.2 mph94%29.80 "Hg6 mi
3:00 AM51 °FOvercast.1 mph92%29.81 "Hg7 mi
2:00 AM51 °FOvercast.2 mph90%29.81 "Hg9 mi
1:00 AM51 °FPassing clouds.3 mph92%29.81 "Hg11 mi
Weather by CustomWeather, © 2015

See weather overviewHow to use our weather pages